[[{"header":{"parameterUnit":"m.s-1","parameterCategory":1,"la1":30.2991,"la2":30.254,"lo1":-89.0895,"lo2":-89.0444,"dy":0.0017,"dx":0.0017,"nx":28,"ny":28,"refTime":"2023-11-13T03:00:00:Z","depth":0,"parameterNumber":2,"parameterNumberName":"U-component_of_WINDS"},"data":[0,0,0,0,0,0,0,0,0,0,0,0,0,0,0,0,0,0,0,0,0,0,0,0,0,0,0,0,0,0,0,0,0,0,0,0,0,0,0,0,0,0,0,0,0,0,0,0,0,0,0,0,0,0,0,0,0,0,-4.2069,-4.207,0,-4.2092,-4.2092,-4.2093,-4.1981,-4.1978,-4.1975,-4.1972,-4.1997,-4.2,-4.2004,0,0,0,0,0,0,0,0,0,0,0,0,0,-4.193,-4.1934,-4.2069,-4.207,-4.207,-4.2092,-4.2093,-4.2093,-4.1982,-4.1978,-4.1974,-4.197,-4.1996,-4.2,-4.2004,0,0,0,0,0,0,0,0,0,0,0,0,0,-4.1976,-4.1935,-4.2069,-4.2017,-4.2013,-4.2092,-4.2093,-4.2093,-4.1982,-4.1978,-4.1973,-4.1968,-4.1994,-4.2,-4.2005,-4.2136,0,0,-4.2022,-4.2024,0,0,0,0,0,0,0,0,-4.1974,-4.1981,-4.2025,-4.2021,-4.2016,-4.2029,-4.2053,-4.2108,-4.1984,-4.1994,-4.1971,-4.1966,-4.2012,-4.2015,-4.203,-4.2138,-4.2139,-4.2023,-4.2026,-4.2028,-4.203,0,0,0,0,0,0,0,-4.197,-4.198,-4.2078,-4.2025,-4.202,-4.1993,-4.1994,-4.2063,-4.203,-4.1993,-4.1985,-4.1989,-4.2008,-4.2025,-4.203,-4.2139,-4.2022,-4.2027,-4.2031,-4.2033,-4.2355,-4.236,0,0,0,0,0,0,-4.1974,-4.1978,-4.2078,-4.2079,-4.1982,-4.1999,-4.2,-4.203,-4.2029,-4.2024,-4.1993,-4.1984,-4.2018,-4.2024,-4.2031,-4.2185,-4.2028,-4.2033,-4.2037,-4.235,-4.2357,-4.2362,0,0,0,0,0,0,-4.1972,-4.1984,-4.2077,-4.2026,-4.2036,-4.2007,-4.204,-4.2033,-4.2049,-4.2029,-4.2023,-4.2016,-4.2015,-4.2023,-4.2111,-4.2184,-4.2036,-4.2041,-4.2344,-4.2352,-4.2359,-4.2495,0,0,0,0,0,0,-4.1968,-4.1984,-4.2033,-4.2028,-4.2039,-4.2157,-4.2045,-4.2037,-4.2059,-4.2047,-4.2049,-4.2045,-4.2011,-4.2103,-4.2116,-4.2189,-4.2045,-4.2337,-4.2348,-4.2357,-4.2484,-4.2506,-4.2526,0,0,0,0,0,-4.1963,-4.2071,-4.2037,-4.2049,-4.21,-4.2161,-4.2168,-4.2126,-4.2065,-4.2115,-4.2102,-4.2045,-4.2174,-4.2113,-4.2127,-4.2203,-4.2333,-4.2345,-4.2356,-4.2474,-4.2502,-4.2525,0,0,0,0,0,0,-4.2086,-4.2069,-4.2031,-4.214,-4.2153,-4.2142,-4.2204,-4.2157,-4.2188,-4.2176,-4.2123,-4.2125,-4.2222,-4.2221,-4.2154,-4.233,-4.2243,-4.2258,-4.2328,-4.2354,-4.2374,-4.2373,-4.205,0,0,0,0,0,-4.2126,-4.2177,-4.2159,-4.2257,-4.2265,-4.2234,-4.2259,-4.2226,-4.2237,-4.2242,-4.2235,-4.2249,-4.2293,-4.2323,-4.2361,-4.2482,-4.2481,-4.2541,-4.2562,-4.2579,-4.2593,-4.2658,-4.2684,-4.2401,-4.2401,-4.2401,0,0,-4.2209,-4.2206,-4.2241,-4.2281,-4.2287,-4.2342,-4.2239,-4.2301,-4.234,-4.2252,-4.2335,-4.233,-4.2342,-4.2447,-4.2493,-4.2449,-4.2671,-4.2594,-4.2608,-4.2613,-4.2673,-4.2699,-4.2723,-4.2409,-4.2408,-4.2406,0,0,-4.2388,-4.239,-4.2472,-4.248,-4.249,-4.2468,-4.2488,-4.2484,-4.2478,-4.256,-4.2495,-4.2541,-4.2617,-4.2628,-4.2644,-4.2826,-4.2775,-4.284,-4.2951,-4.3014,-4.3036,-4.3056,-4.3122,-4.3146,-4.2854,-4.2855,-4.2855,0,-4.249,-4.2568,-4.252,-4.2586,-4.2606,-4.2527,-4.261,-4.262,-4.2643,-4.2659,-4.2609,-4.2702,-4.2705,-4.2812,-4.2856,-4.2871,-4.2893,-4.2841,-4.3037,-4.3056,-4.3074,-4.3136,-4.3161,-4.2862,-4.2862,-4.2861,-4.286,0,-4.2693,-4.2749,-4.2814,-4.2837,-4.2864,-4.2938,-4.2902,-4.2935,-4.2899,-4.2883,-4.2968,-4.2967,-4.3005,-4.3027,-4.2994,-4.313,-4.3102,-4.3046,-4.2957,-4.3109,-4.3167,-4.3191,-4.2874,-4.2871,-4.2869,-4.2867,0,0,-4.2952,-4.2947,-4.2972,-4.2982,-4.2987,-4.3029,-4.3099,-4.3135,-4.3165,-4.3183,-4.3242,-4.3307,-4.3254,-4.3272,-4.3238,-4.3294,-4.3439,-4.323,-4.3229,-4.327,-4.3591,-4.3635,-4.3663,-4.3405,-4.3409,-4.3412,-4.359,0,-4.3128,-4.3248,-4.3207,-4.3329,-4.338,-4.3305,-4.3367,-4.3377,-4.3363,-4.3404,-4.3389,-4.3437,-4.3363,-4.3373,-4.3424,-4.3411,-4.3503,-4.3397,-4.346,-4.3463,-4.3461,-4.3693,-4.374,-4.3908,-4.3612,-4.3616,-4.3619,0,-4.3351,-4.3377,-4.3505,-4.35,-4.352,-4.3576,-4.3606,-4.3646,-4.3655,-4.3641,-4.3661,-4.3616,-4.3685,-4.3595,-4.369,-4.3619,-4.3642,-4.3639,-4.3645,-4.365,-4.3551,-4.3707,-4.3961,-4.3987,-4.3654,-4.3651,-4.3648,0,-4.3529,-4.3596,-4.3681,-4.3691,-4.3688,-4.3729,-4.373,-4.3735,-4.3759,-4.3785,-4.38,-4.3834,-4.3853,-4.388,-4.3845,-4.3783,-4.3946,-4.3853,-4.3938,-4.3939,-4.3977,-4.3976,-4.424,-4.3989,-4.3989,-4.3988,-4.3988,0,-4.3731,-4.3812,-4.376,-4.3813,-4.3902,-4.3853,-4.3943,-4.3935,-4.3939,-4.399,-4.3926,-4.3975,-4.3925,-4.3969,-4.3941,-4.4025,-4.4034,-4.4025,-4.4017,-4.4032,-4.4033,-4.4048,-4.4036,-4.3995,-4.3994,-4.3992,-4.3991,0,-4.3946,-4.3914,-4.4002,-4.3991,-4.3991,-4.4057,-4.4048,-4.4096,-4.4077,-4.4141,-4.4154,-4.4124,-4.4173,-4.414,-4.4189,-4.417,-4.428,-4.4255,-4.4277,-4.4271,-4.4358,-4.4351,-4.4642,-4.4678,-4.4403,-4.4406,-4.4408,0,-4.4078,-4.4138,-4.4134,-4.4163,-4.4167,-4.4214,-4.4238,-4.4192,-4.422,-4.4235,-4.4282,-4.4325,-4.4356,-4.4437,-4.4421,-4.4458,-4.4434,-4.4534,-4.444,-4.4453,-4.4438,-4.4435,-4.4442,-4.4554,-4.4557,-4.4559,-4.4562,0,-4.4316,-4.4297,-4.4334,-4.4366,-4.4396,-4.4419,-4.4437,-4.4464,-4.4417,-4.4451,-4.45,-4.4524,-4.4573,-4.4617,-4.4647,-4.4648,-4.4599,-4.4591,-4.4613,-4.4629,-4.464,-4.4637,-4.4331,-4.4585,-4.4583,-4.4581,-4.458,-4.4579,-4.4494,-4.4545,-4.455,-4.4593,-4.4601,-4.4619,-4.4664,-4.465,-4.4689,-4.4725,-4.4695,-4.4753,-4.4761,-4.4796,-4.4803,-4.4848,-4.4808,-4.4839,-4.4847,-4.4856,-4.4869,-4.4631,-4.4854,-4.4853,-4.4852,-4.4852,-4.4851,0,-4.473,-4.4729,-4.4769,-4.4796,-4.483,-4.4777,-4.4794,-4.4827,-4.4878,-4.4889,-4.4921,-4.4977,-4.5019,-4.5005,-4.5042,-4.5081,-4.5059,-4.5093,-4.509,-4.5091,-4.4903,-4.4881,-4.511,-4.511,-4.511,-4.511,-4.511,-4.511,-4.4857,-4.494,-4.4922,-4.5008,-4.5006,-4.5062,-4.5076,-4.5093,-4.5101,-4.5166,-4.52,-4.519,-4.5191,-4.5228,-4.5264,-4.5259,-4.5276,-4.5319,-4.5306,-4.513,-4.5105,-4.508,-4.506,-4.5323,-4.5323,-4.5491,-4.5492,-4.5494]},{"header":{"parameterUnit":"m.s-1","parameterCategory":1,"la1":30.2991,"la2":30.254,"lo1":-89.0895,"lo2":-89.0444,"dy":0.0017,"dx":0.0017,"nx":28,"ny":28,"refTime":"2023-11-13T03:00:00:Z","depth":0,"parameterNumber":3,"parameterNumberName":"V-component_of_WINDS"},"data":[0,0,0,0,0,0,0,0,0,0,0,0,0,0,0,0,0,0,0,0,0,0,0,0,0,0,0,0,0,0,0,0,0,0,0,0,0,0,0,0,0,0,0,0,0,0,0,0,0,0,0,0,0,0,0,0,0,0,-5.5606,-5.5607,0,-5.5723,-5.5724,-5.5725,-5.5685,-5.5682,-5.5679,-5.5677,-5.5791,-5.5796,-5.5801,0,0,0,0,0,0,0,0,0,0,0,0,0,-5.534,-5.5345,-5.5606,-5.5607,-5.5609,-5.5723,-5.5724,-5.5726,-5.5685,-5.5682,-5.5679,-5.5676,-5.5789,-5.5795,-5.5802,0,0,0,0,0,0,0,0,0,0,0,0,0,-5.5456,-5.5347,-5.5606,-5.5602,-5.5603,-5.5722,-5.5724,-5.5726,-5.5686,-5.5682,-5.5678,-5.5674,-5.5787,-5.5795,-5.5803,-5.593,0,0,-5.5828,-5.5831,0,0,0,0,0,0,0,0,-5.5449,-5.5466,-5.5601,-5.5603,-5.5604,-5.5685,-5.5672,-5.5794,-5.5687,-5.5654,-5.5677,-5.5673,-5.5758,-5.5769,-5.5799,-5.5935,-5.594,-5.5828,-5.5833,-5.5837,-5.5839,0,0,0,0,0,0,0,-5.5441,-5.546,-5.5652,-5.5603,-5.5605,-5.5592,-5.5605,-5.5695,-5.5726,-5.5657,-5.5654,-5.5669,-5.5758,-5.5791,-5.5801,-5.5942,-5.5828,-5.5835,-5.584,-5.5844,-5.6185,-5.6189,0,0,0,0,0,0,-5.5433,-5.5454,-5.5648,-5.5655,-5.5516,-5.56,-5.5614,-5.5663,-5.5725,-5.5731,-5.5672,-5.5667,-5.5779,-5.5792,-5.5805,-5.5956,-5.5837,-5.5844,-5.5849,-5.6181,-5.6186,-5.6191,0,0,0,0,0,0,-5.5428,-5.5451,-5.5644,-5.5554,-5.5578,-5.5609,-5.5664,-5.5667,-5.57,-5.5737,-5.5741,-5.57,-5.5777,-5.5794,-5.5899,-5.596,-5.5848,-5.5855,-5.6176,-5.6183,-5.6188,-5.6261,0,0,0,0,0,0,-5.5421,-5.545,-5.55,-5.5556,-5.5583,-5.5738,-5.5668,-5.5672,-5.5715,-5.5709,-5.5765,-5.577,-5.5775,-5.5887,-5.5907,-5.5969,-5.5862,-5.6171,-5.6179,-5.6186,-5.6254,-5.6269,-5.6283,0,0,0,0,0,-5.5411,-5.5516,-5.5503,-5.5527,-5.5647,-5.5742,-5.5757,-5.5762,-5.572,-5.577,-5.5793,-5.5768,-5.595,-5.5898,-5.592,-5.5986,-5.6167,-5.6177,-5.6186,-5.6247,-5.6266,-5.6283,0,0,0,0,0,0,-5.5465,-5.5523,-5.551,-5.5636,-5.5685,-5.5735,-5.5798,-5.5783,-5.5843,-5.5835,-5.5836,-5.5849,-5.5957,-5.5982,-5.5923,-5.611,-5.6052,-5.6066,-5.6091,-5.6109,-5.6124,-5.6115,-5.5868,0,0,0,0,0,-5.5492,-5.5567,-5.5612,-5.5719,-5.5744,-5.5767,-5.5808,-5.5808,-5.5858,-5.5878,-5.5908,-5.5956,-5.6023,-5.6067,-5.6132,-5.6257,-5.6267,-5.6312,-5.6327,-5.6338,-5.6351,-5.6416,-5.6436,-5.6222,-5.6222,-5.6221,0,0,-5.5548,-5.5589,-5.5635,-5.573,-5.5768,-5.5843,-5.5785,-5.5866,-5.5921,-5.5889,-5.5991,-5.6015,-5.6067,-5.6183,-5.6235,-5.6207,-5.6412,-5.635,-5.636,-5.6366,-5.6428,-5.6448,-5.6466,-5.6228,-5.6227,-5.6226,0,0,-5.5688,-5.5727,-5.5819,-5.5858,-5.5916,-5.5931,-5.5952,-5.6005,-5.602,-5.6123,-5.61,-5.6163,-5.628,-5.6318,-5.6352,-5.6503,-5.6481,-5.6523,-5.66,-5.6663,-5.668,-5.6695,-5.6747,-5.6766,-5.6535,-5.6536,-5.6536,0,-5.5749,-5.5863,-5.5868,-5.5952,-5.5993,-5.5969,-5.606,-5.6097,-5.6172,-5.62,-5.6167,-5.6312,-5.6345,-5.6468,-5.6505,-5.6534,-5.6557,-5.6517,-5.6678,-5.6693,-5.6707,-5.6756,-5.6776,-5.654,-5.654,-5.6539,-5.6539,0,-5.5935,-5.6014,-5.6081,-5.6156,-5.6204,-5.6291,-5.6306,-5.6354,-5.6349,-5.6365,-5.6468,-5.6507,-5.6578,-5.6607,-5.6602,-5.6728,-5.6708,-5.6677,-5.6618,-5.6732,-5.6778,-5.6797,-5.6547,-5.6545,-5.6544,-5.6543,0,0,-5.6114,-5.6189,-5.6213,-5.6246,-5.6307,-5.6367,-5.6451,-5.6522,-5.6562,-5.6613,-5.6682,-5.6781,-5.6751,-5.679,-5.6789,-5.6845,-5.6959,-5.6806,-5.6807,-5.6832,-5.7097,-5.712,-5.7142,-5.6945,-5.6949,-5.6952,-5.7092,0,-5.6258,-5.6409,-5.6414,-5.655,-5.6622,-5.6598,-5.6671,-5.6715,-5.6732,-5.6792,-5.681,-5.6879,-5.6836,-5.6859,-5.6913,-5.6934,-5.7012,-5.6924,-5.7007,-5.701,-5.6994,-5.7167,-5.7192,-5.7324,-5.7111,-5.7114,-5.7116,0,-5.6447,-5.6505,-5.665,-5.6698,-5.6728,-5.6794,-5.6858,-5.6917,-5.6964,-5.6972,-5.7015,-5.7005,-5.7087,-5.7026,-5.7138,-5.7078,-5.7111,-5.7126,-5.7131,-5.7139,-5.707,-5.7178,-5.7366,-5.7385,-5.7145,-5.7143,-5.7141,0,-5.6561,-5.6676,-5.6776,-5.6805,-5.6865,-5.6911,-5.6938,-5.6982,-5.7023,-5.7077,-5.7103,-5.7166,-5.72,-5.7248,-5.7253,-5.7208,-5.7366,-5.7305,-5.7372,-5.7372,-5.7407,-5.7404,-5.7601,-5.743,-5.743,-5.7429,-5.7429,0,-5.6721,-5.6809,-5.6828,-5.689,-5.6988,-5.6991,-5.7086,-5.7109,-5.7148,-5.7211,-5.7193,-5.7253,-5.7257,-5.7317,-5.7321,-5.7412,-5.7428,-5.7435,-5.7435,-5.7437,-5.7436,-5.7458,-5.7449,-5.7434,-5.7433,-5.7432,-5.7431,0,-5.6865,-5.6882,-5.699,-5.7037,-5.7051,-5.712,-5.7159,-5.7217,-5.7231,-5.7311,-5.733,-5.7352,-5.7422,-5.7432,-5.7513,-5.7516,-5.7624,-5.7615,-5.7609,-5.7608,-5.7674,-5.7667,-5.7892,-5.7921,-5.7732,-5.7733,-5.7735,0,-5.6966,-5.7034,-5.7088,-5.7131,-5.716,-5.7228,-5.727,-5.7274,-5.7318,-5.7376,-5.7426,-5.7493,-5.7548,-5.7659,-5.7681,-5.7742,-5.7733,-5.7808,-5.7742,-5.7741,-5.7733,-5.7729,-5.7734,-5.782,-5.7823,-5.7824,-5.7826,0,-5.7143,-5.7147,-5.721,-5.7275,-5.7325,-5.7376,-5.7424,-5.7458,-5.7468,-5.7518,-5.759,-5.7632,-5.7714,-5.7781,-5.7841,-5.7865,-5.7846,-5.7846,-5.7865,-5.7866,-5.786,-5.7863,-5.7643,-5.7841,-5.7839,-5.7838,-5.7837,-5.7837,-5.7268,-5.7326,-5.7373,-5.7442,-5.7479,-5.7523,-5.7579,-5.76,-5.7661,-5.773,-5.7728,-5.7806,-5.7848,-5.7927,-5.7954,-5.8013,-5.7989,-5.8016,-5.8023,-5.8029,-5.8035,-5.7851,-5.8024,-5.8024,-5.8023,-5.8023,-5.8023,0,-5.7443,-5.7471,-5.7535,-5.7603,-5.7656,-5.7635,-5.7686,-5.7731,-5.7801,-5.7843,-5.7897,-5.7977,-5.8041,-5.8067,-5.8129,-5.8171,-5.8163,-5.8187,-5.8183,-5.8188,-5.8055,-5.8032,-5.8191,-5.8191,-5.8191,-5.8191,-5.8191,-5.8191,-5.754,-5.7637,-5.7646,-5.7759,-5.7786,-5.7864,-5.7895,-5.7934,-5.7967,-5.8059,-5.8112,-5.8129,-5.8164,-5.8227,-5.8284,-5.8289,-5.8312,-5.8339,-5.8341,-5.8215,-5.8198,-5.8182,-5.816,-5.8344,-5.8345,-5.8469,-5.8471,-5.8472]}]]